Time,TemperatureF,DewpointF,PressureIn,WindDirection,WindDirectionDegrees,WindSpeedMPH,WindSpeedGustMPH,Humidity,HourlyPrecipIn,Conditions,Clouds,dailyrainin,SolarRadiationWatts/m^2,SoftwareType,DateUTC
2013-02-09 00:01:00,-5.0,-11.0,-100.00,West,260,0.0,2.0,74,-99.99,,,0.11,1.000000,,2013-02-09 06:01:00,
2013-02-09 01:01:00,1.0,-3.0,-100.00,SW,233,1.0,5.0,81,0.00,,,0.11,1.000000,,2013-02-09 07:01:00,
2013-02-09 01:11:00,1.0,-3.0,-100.00,SW,233,1.0,5.0,81,0.00,,,0.11,1.000000,,2013-02-09 07:11:00,
2013-02-09 01:21:00,1.0,-3.0,-100.00,SW,233,1.0,5.0,81,0.00,,,0.11,1.000000,,2013-02-09 07:21:00,
2013-02-09 01:31:00,1.0,-3.0,-100.00,SW,233,1.0,5.0,81,0.00,,,0.11,1.000000,,2013-02-09 07:31:00,
2013-02-09 02:01:00,4.0,-1.0,-100.00,WNW,298,1.0,5.0,79,0.00,,,0.11,1.000000,,2013-02-09 08:01:00,
2013-02-09 02:11:00,4.0,-1.0,-100.00,WNW,298,1.0,5.0,79,0.00,,,0.11,1.000000,,2013-02-09 08:11:00,
2013-02-09 02:21:00,4.0,-1.0,-100.00,WNW,298,1.0,5.0,79,0.00,,,0.11,1.000000,,2013-02-09 08:21:00,
2013-02-09 02:31:00,4.0,-1.0,-100.00,WNW,298,1.0,5.0,79,0.00,,,0.11,1.000000,,2013-02-09 08:31:00,
2013-02-09 03:03:00,6.0,2.0,-100.00,WSW,239,2.0,4.0,82,0.00,,,0.11,1.000000,,2013-02-09 09:03:00,
2013-02-09 03:11:00,6.0,2.0,-100.00,WSW,239,2.0,4.0,82,0.00,,,0.11,1.000000,,2013-02-09 09:11:00,
2013-02-09 03:21:00,6.0,2.0,-100.00,WSW,239,2.0,4.0,82,0.00,,,0.11,1.000000,,2013-02-09 09:21:00,
2013-02-09 03:31:00,6.0,2.0,-100.00,WSW,239,2.0,4.0,82,0.00,,,0.11,1.000000,,2013-02-09 09:31:00,
2013-02-09 04:01:00,9.0,5.0,-100.00,SSW,208,2.0,6.0,83,0.00,,,0.11,1.000000,,2013-02-09 10:01:00,
2013-02-09 04:11:00,9.0,5.0,-100.00,SSW,208,2.0,6.0,83,0.00,,,0.11,1.000000,,2013-02-09 10:11:00,
2013-02-09 04:21:00,9.0,5.0,-100.00,SSW,208,2.0,6.0,83,0.00,,,0.11,1.000000,,2013-02-09 10:21:00,
2013-02-09 04:31:00,9.0,5.0,-100.00,SSW,208,2.0,6.0,83,0.00,,,0.11,1.000000,,2013-02-09 10:31:00,
2013-02-09 05:01:00,10.0,6.0,-100.00,SW,216,4.0,9.0,82,0.00,,,0.11,1.000000,,2013-02-09 11:01:00,
2013-02-09 05:11:00,10.0,6.0,-100.00,SW,216,4.0,9.0,82,0.00,,,0.11,1.000000,,2013-02-09 11:11:00,
2013-02-09 05:22:00,10.0,6.0,-100.00,SW,216,4.0,9.0,82,0.00,,,0.11,1.000000,,2013-02-09 11:22:00,
2013-02-09 05:31:00,10.0,6.0,-100.00,SW,216,4.0,9.0,82,0.00,,,0.11,1.000000,,2013-02-09 11:31:00,
2013-02-09 05:52:00,10.0,5.0,-100.00,SSW,212,4.0,11.0,80,0.00,,,0.11,1.000000,,2013-02-09 11:52:00,
2013-02-09 06:02:00,10.0,5.0,-100.00,SSW,212,4.0,11.0,80,0.00,,,0.11,1.000000,,2013-02-09 12:02:00,
2013-02-09 06:11:00,10.0,5.0,-100.00,SSW,212,4.0,11.0,80,0.00,,,0.11,1.000000,,2013-02-09 12:11:00,
2013-02-09 06:21:00,10.0,5.0,-100.00,SSW,212,4.0,11.0,80,0.00,,,0.11,1.000000,,2013-02-09 12:21:00,
2013-02-09 06:32:00,10.0,5.0,-100.00,SSW,212,4.0,11.0,80,0.00,,,0.11,1.000000,,2013-02-09 12:32:00,
2013-02-09 07:02:00,11.0,6.0,-100.00,SSW,206,4.0,10.0,80,0.00,,,-99.99,1.000000,,2013-02-09 13:02:00,
2013-02-09 07:11:00,11.0,6.0,-100.00,SSW,206,4.0,10.0,80,0.00,,,-99.99,1.000000,,2013-02-09 13:11:00,
2013-02-09 07:22:00,11.0,6.0,-100.00,SSW,206,4.0,10.0,80,0.00,,,-99.99,1.000000,,2013-02-09 13:22:00,
2013-02-09 07:32:00,11.0,6.0,-100.00,SSW,206,4.0,10.0,80,0.00,,,-99.99,1.000000,,2013-02-09 13:32:00,
2013-02-09 08:01:00,12.0,7.0,-100.00,SSW,209,5.0,10.0,81,0.00,,,0.11,7.000000,,2013-02-09 14:01:00,
2013-02-09 08:11:00,12.0,7.0,-100.00,SSW,209,5.0,10.0,81,0.00,,,0.11,7.000000,,2013-02-09 14:11:00,
2013-02-09 08:21:00,12.0,7.0,-100.00,SSW,209,5.0,10.0,81,0.00,,,0.11,7.000000,,2013-02-09 14:21:00,
2013-02-09 08:31:00,12.0,7.0,-100.00,SSW,209,5.0,10.0,81,0.00,,,0.11,7.000000,,2013-02-09 14:31:00,
2013-02-09 09:02:00,16.0,10.0,-100.00,SSW,213,6.0,13.0,77,0.00,,,0.11,63.000000,,2013-02-09 15:02:00,
2013-02-09 09:11:00,16.0,10.0,-100.00,SSW,213,6.0,13.0,77,0.00,,,0.11,63.000000,,2013-02-09 15:11:00,
2013-02-09 09:21:00,16.0,10.0,-100.00,SSW,213,6.0,13.0,77,0.00,,,0.11,63.000000,,2013-02-09 15:21:00,
2013-02-09 09:32:00,16.0,10.0,-100.00,SSW,213,6.0,13.0,77,0.00,,,0.11,63.000000,,2013-02-09 15:32:00,
2013-02-09 10:01:00,21.0,11.0,-100.00,SSW,207,7.0,16.0,66,0.00,,,0.11,186.000000,,2013-02-09 16:01:00,
2013-02-09 10:11:00,21.0,11.0,-100.00,SSW,207,7.0,16.0,66,0.00,,,0.11,186.000000,,2013-02-09 16:11:00,
2013-02-09 10:22:00,21.0,11.0,-100.00,SSW,207,7.0,16.0,66,0.00,,,0.11,186.000000,,2013-02-09 16:22:00,
2013-02-09 10:31:00,21.0,11.0,-100.00,SSW,207,7.0,16.0,66,0.00,,,0.11,186.000000,,2013-02-09 16:31:00,
2013-02-09 11:01:00,24.0,14.0,-100.00,SSW,213,6.0,19.0,65,0.00,,,0.11,230.000000,,2013-02-09 17:01:00,
2013-02-09 11:11:00,24.0,14.0,-100.00,SSW,213,6.0,19.0,65,0.00,,,0.11,230.000000,,2013-02-09 17:11:00,
2013-02-09 11:21:00,24.0,14.0,-100.00,SSW,213,6.0,19.0,65,0.00,,,0.11,230.000000,,2013-02-09 17:21:00,
2013-02-09 11:32:00,24.0,14.0,-100.00,SSW,213,6.0,19.0,65,0.00,,,0.11,230.000000,,2013-02-09 17:32:00,
2013-02-09 12:02:00,28.0,16.0,-100.00,SSW,197,6.0,15.0,60,0.00,,,0.11,271.000000,,2013-02-09 18:02:00,
2013-02-09 12:12:00,28.0,16.0,-100.00,SSW,197,6.0,15.0,60,0.00,,,0.11,271.000000,,2013-02-09 18:12:00,
2013-02-09 12:23:00,28.0,16.0,-100.00,SSW,197,6.0,15.0,60,0.00,,,0.11,271.000000,,2013-02-09 18:23:00,
2013-02-09 12:32:00,28.0,16.0,-100.00,SSW,197,6.0,15.0,60,0.00,,,0.11,271.000000,,2013-02-09 18:32:00,
2013-02-09 13:01:00,27.0,16.0,-100.00,SSW,194,6.0,16.0,63,0.00,,,0.09,183.000000,,2013-02-09 19:01:00,
2013-02-09 13:11:00,27.0,16.0,-100.00,SSW,194,6.0,16.0,63,0.00,,,0.09,183.000000,,2013-02-09 19:11:00,
2013-02-09 13:22:00,27.0,16.0,-100.00,SSW,194,6.0,16.0,63,0.00,,,0.09,183.000000,,2013-02-09 19:22:00,
2013-02-09 13:32:00,27.0,16.0,-100.00,SSW,194,6.0,16.0,63,0.00,,,0.09,183.000000,,2013-02-09 19:32:00,
2013-02-09 14:01:00,33.0,18.0,-100.00,SW,214,6.0,13.0,54,0.00,,,0.07,282.000000,,2013-02-09 20:01:00,
2013-02-09 14:11:00,33.0,18.0,-100.00,SW,214,6.0,13.0,54,0.00,,,0.07,282.000000,,2013-02-09 20:11:00,
2013-02-09 14:21:00,33.0,18.0,-100.00,SW,214,6.0,13.0,54,0.00,,,0.07,282.000000,,2013-02-09 20:21:00,
2013-02-09 14:32:00,33.0,18.0,-100.00,SW,214,6.0,13.0,54,0.00,,,0.07,282.000000,,2013-02-09 20:32:00,
2013-02-09 14:52:00,33.0,18.0,-100.00,SSW,210,5.0,15.0,53,0.03,,,0.08,334.000000,,2013-02-09 20:52:00,
2013-02-09 15:02:00,33.0,18.0,-100.00,SSW,210,5.0,15.0,53,0.03,,,0.08,334.000000,,2013-02-09 21:02:00,
2013-02-09 15:11:00,33.0,18.0,-100.00,SSW,210,5.0,15.0,53,0.03,,,0.08,334.000000,,2013-02-09 21:11:00,
2013-02-09 15:21:00,33.0,18.0,-100.00,SSW,210,5.0,15.0,53,0.03,,,0.08,334.000000,,2013-02-09 21:21:00,
2013-02-09 15:31:00,33.0,18.0,-100.00,SSW,210,5.0,15.0,53,0.03,,,0.08,334.000000,,2013-02-09 21:31:00,
2013-02-09 15:52:00,30.0,15.0,-100.00,SW,219,7.0,16.0,54,0.01,,,0.05,233.000000,,2013-02-09 21:52:00,
2013-02-09 16:01:00,30.0,15.0,-100.00,SW,219,7.0,16.0,54,0.01,,,0.05,233.000000,,2013-02-09 22:01:00,
2013-02-09 16:11:00,30.0,15.0,-100.00,SW,219,7.0,16.0,54,0.01,,,0.05,233.000000,,2013-02-09 22:11:00,
2013-02-09 16:21:00,30.0,15.0,-100.00,SW,219,7.0,16.0,54,0.01,,,0.05,233.000000,,2013-02-09 22:21:00,
2013-02-09 16:32:00,30.0,15.0,-100.00,SW,219,7.0,16.0,54,0.01,,,0.05,233.000000,,2013-02-09 22:32:00,
2013-02-09 17:02:00,24.0,12.0,-100.00,SSW,213,5.0,12.0,60,0.00,,,0.04,122.000000,,2013-02-09 23:02:00,
2013-02-09 17:11:00,24.0,12.0,-100.00,SSW,213,5.0,12.0,60,0.00,,,0.04,122.000000,,2013-02-09 23:11:00,
2013-02-09 17:21:00,24.0,12.0,-100.00,SSW,213,5.0,12.0,60,0.00,,,0.04,122.000000,,2013-02-09 23:21:00,
2013-02-09 17:32:00,24.0,12.0,-100.00,SSW,213,5.0,12.0,60,0.00,,,0.04,122.000000,,2013-02-09 23:32:00,
2013-02-09 18:02:00,20.0,11.0,-100.00,SW,218,3.0,10.0,68,0.00,,,0.04,11.000000,,2013-02-10 00:02:00,
2013-02-09 18:12:00,20.0,11.0,-100.00,SW,218,3.0,10.0,68,0.00,,,0.04,11.000000,,2013-02-10 00:12:00,
2013-02-09 18:22:00,20.0,11.0,-100.00,SW,218,3.0,10.0,68,0.00,,,0.04,11.000000,,2013-02-10 00:22:00,
2013-02-09 18:32:00,20.0,11.0,-100.00,SW,218,3.0,10.0,68,0.00,,,0.04,11.000000,,2013-02-10 00:32:00,
2013-02-09 19:01:00,17.0,11.0,-100.00,SSW,202,2.0,7.0,76,0.00,,,0.04,1.000000,,2013-02-10 01:01:00,
2013-02-09 19:12:00,17.0,11.0,-100.00,SSW,202,2.0,7.0,76,0.00,,,0.04,1.000000,,2013-02-10 01:12:00,
2013-02-09 19:21:00,17.0,11.0,-100.00,SSW,202,2.0,7.0,76,0.00,,,0.04,1.000000,,2013-02-10 01:21:00,
2013-02-09 19:32:00,17.0,11.0,-100.00,SSW,202,2.0,7.0,76,0.00,,,0.04,1.000000,,2013-02-10 01:32:00,
2013-02-09 20:01:00,18.0,12.0,-100.00,SW,236,7.0,13.0,78,0.00,,,0.04,1.000000,,2013-02-10 02:01:00,
2013-02-09 20:11:00,18.0,12.0,-100.00,SW,236,7.0,13.0,78,0.00,,,0.04,1.000000,,2013-02-10 02:11:00,
2013-02-09 20:22:00,18.0,12.0,-100.00,SW,236,7.0,13.0,78,0.00,,,0.04,1.000000,,2013-02-10 02:22:00,
2013-02-09 20:32:00,18.0,12.0,-100.00,SW,236,7.0,13.0,78,0.00,,,0.04,1.000000,,2013-02-10 02:32:00,
2013-02-09 21:02:00,18.0,14.0,-100.00,SW,228,3.0,9.0,85,0.00,,,0.04,1.000000,,2013-02-10 03:02:00,
2013-02-09 21:11:00,18.0,14.0,-100.00,SW,228,3.0,9.0,85,0.00,,,0.04,1.000000,,2013-02-10 03:11:00,
2013-02-09 21:21:00,18.0,14.0,-100.00,SW,228,3.0,9.0,85,0.00,,,0.04,1.000000,,2013-02-10 03:21:00,
2013-02-09 21:32:00,18.0,14.0,-100.00,SW,228,3.0,9.0,85,0.00,,,0.04,1.000000,,2013-02-10 03:32:00,
2013-02-09 22:01:00,18.0,15.0,-100.00,SSW,203,2.0,7.0,87,0.00,,,0.04,1.000000,,2013-02-10 04:01:00,
2013-02-09 22:11:00,18.0,15.0,-100.00,SSW,203,2.0,7.0,87,0.00,,,0.04,1.000000,,2013-02-10 04:11:00,
2013-02-09 22:21:00,18.0,15.0,-100.00,SSW,203,2.0,7.0,87,0.00,,,0.04,1.000000,,2013-02-10 04:21:00,
2013-02-09 22:32:00,18.0,15.0,-100.00,SSW,203,2.0,7.0,87,0.00,,,0.04,1.000000,,2013-02-10 04:32:00,
2013-02-09 23:01:00,19.0,16.0,-100.00,SSW,193,1.0,4.0,88,0.00,,,0.04,1.000000,,2013-02-10 05:01:00,
2013-02-09 23:11:00,19.0,16.0,-100.00,SSW,193,1.0,4.0,88,0.00,,,0.04,1.000000,,2013-02-10 05:11:00,
2013-02-09 23:22:00,19.0,16.0,-100.00,SSW,193,1.0,4.0,88,0.00,,,0.04,1.000000,,2013-02-10 05:22:00,
2013-02-09 23:31:00,19.0,16.0,-100.00,SSW,193,1.0,4.0,88,0.00,,,0.04,1.000000,,2013-02-10 05:31:00,